Hourly Data Report for November 06, 2019

All times are specified in Local Standard Time (LST). Add 1 hour to adjust for Daylight Saving Time where and when it is observed.

SEPT-ILES
QUEBEC
Current Station Operator: ECCC - MSC

50°13'00.000" N
66°15'00.000" W
52.60 m
7047914
71279
XZV

Download Data

Hourly Data (November 2019)
Hourly Data Report for November 6, 2019
TIME Temp Definition
°C
Dew Point Definition
°C
Rel Hum Definition
%
Wind Dir Definition
10's deg

Wind Spd Definition
km/h
Visibility Definition
km
Stn Press Definition
kPa
Hmdx Definition


Wind Chill Definition


Weather Definition


00:00 5.8 5.5 98 15 10   100.36     LegendNANA
01:00 5.7 5.4 98 16 3   100.28     LegendNANA
02:00 5.6 5.4 98 17 3   100.18     LegendNANA
03:00 5.7 5.4 98 22 5   100.09     LegendNANA
04:00 5.5 5.0 97 25 8   100.05     LegendNANA
05:00 5.3 4.8 96 25 10   100.01     LegendNANA
06:00 4.2 3.0 92 26 13   100.03     LegendNANA
07:00 3.7 2.5 91 25 11   100.00     LegendNANA
08:00 4.2 2.3 88 24 8   100.01     LegendNANA
09:00 4.6 1.6 81 25 15   99.94     LegendNANA
10:00 5.5 2.0 78 25 14   99.90     LegendNANA
11:00 5.2 -0.3 68 26 17   99.86     LegendNANA
12:00 2.1 0.0 86 29 28   99.88     LegendNANA
13:00 2.6 -3.7 63 26 27   99.96     LegendNANA
14:00 1.4 -6.9 54 27 24   100.13     LegendNANA
15:00 -1.2 -10.6 49 28 33   100.34   -8 LegendNANA
16:00 -2.2 -11.6 49 29 23   100.53   -8 LegendNANA
17:00 -2.9 -12.6 47 28 30   100.65   -10 LegendNANA
18:00 -3.8 -13.6 47 29 27   100.82   -11 LegendNANA
19:00 -4.2 -13.3 49 28 21   100.87   -11 LegendNANA
20:00 -4.2 -12.3 53 28 17   100.91   -10 LegendNANA
21:00 -4.8 -12.8 54 29 16   100.95   -11 LegendNANA
22:00 -4.8 -12.8 54 28 16   100.95   -11 LegendNANA
23:00 -5.0 -12.8 54 28 16   100.97   -11 LegendNANA

Notes on Data Quality.

Legend

  • E = Estimated
  • M = Missing
  • NA = Not Available
Date modified: